Back to catalog

KUIPER-00270

AliveCommunicationsLEO
NORAD 67791·PAYLOAD·🇺🇸 United States

Launched Feb 12, 2026 from Guiana Space Centre

Loading…

Next Passes (next 24 hours)

TLE

FreshSource: CelesTrak SupGP

Epoch: Sep 14, 2026, 13:04 UTC

1 67791C 26030AD  26257.54486111 -.00003139  00000+0 -41097-3 0  2571
2 67791  51.8980  65.4975 0000618  97.6819 139.8299 14.79924970    18

Track KUIPER-00270 in real time with AllMySat

Download on the App Store